• Processing (Info)

  • MPEC 2022-X03 : 2022 WG10

    The following Minor Planet Electronic Circular may be linked-to from your own Web pages, but must not otherwise be redistributed electronically.

    A form allowing access to any MPEC is at the bottom of this page.


    Read MPEC 2022-X02 Read MPEC 2022-X04


    M.P.E.C. 2022-X03                              Issued 2022 December 1, 11:42 UT
    
         The Minor Planet Electronic Circulars contain information on unusual
             minor planets, routine data on comets and natural satellites,
             and occasional editorial announcements.  They are published
        on behalf of Division F of the International Astronomical Union by the
              Minor Planet Center, Smithsonian Astrophysical Observatory,
                              Cambridge, MA 02138, U.S.A.
    			  
                 Prepared using the Tamkin Foundation Computer Network
    
                                  MPC@CFA.HARVARD.EDU
                URL https://www.minorplanetcenter.net/    ISSN 1523-6714
    
                                    2022 WG10                                
    
    
    Observations:
         K22W10G* C2022 11 26.35436802 59 55.408+04 13 27.91         21.81wUEX003F51
         K22W10G  C2022 11 26.38124002 59 53.266+04 13 10.20         22.12wUEX003F51
         K22W10G  C2022 11 26.39674202 59 52.030+04 13 00.04         21.92wUEX003F51
         K22W10G  C2022 11 26.54055902 59 40.738+04 11 24.75         21.82GVEX003F51
         K22W10G |C2022 11 27.07024 02 59 02.82 +04 05 51.4          21.4 GVEX003807
         K22W10G |C2022 11 27.07948 02 59 02.12 +04 05 45.5          20.8 GVEX003807
         K22W10G |C2022 11 27.08872 02 59 01.37 +04 05 39.4          21.4 GVEX003807
         K22W10G KC2022 11 27.16305202 58 56.130+04 04 36.20               VEX003V06
         K22W10G KC2022 11 27.16466802 58 55.960+04 04 35.50               VEX003V06
         K22W10G KC2022 11 27.16628802 58 55.810+04 04 34.40         22.30GVEX003V06
         K22W10G |C2022 11 28.05889 02 57 50.71 +03 55 18.5          21.5 GVEX003807
         K22W10G |C2022 11 28.06814 02 57 50.01 +03 55 12.6          21.4 GVEX003807
         K22W10G |C2022 11 28.07738 02 57 49.29 +03 55 06.9          21.7 GVEX003807
         K22W10G KC2022 11 28.13395802 57 45.428+03 54 15.77         21.88GVEX003V06
         K22W10G KC2022 11 28.13851502 57 45.076+03 54 13.32         22.72GVEX003V06
         K22W10G KC2022 11 28.14307102 57 44.730+03 54 10.44         21.78GVEX003V06
         K22W10G KC2022 11 28.14762702 57 44.420+03 54 07.78         22.37GVEX003V06
         K22W10G KC2022 12 01.16248 02 54 11.41 +03 23 54.6          21.7 RoEX003291
         K22W10G KC2022 12 01.17603 02 54 10.42 +03 23 46.9          21.5 RoEX003291
    
    Observer details:
    291 LPL/Spacewatch II.  Observers J. A. Larsen, R. A. Mastaler.  1.8-m f/2.7
        reflector + CCD.
    807 Cerro Tololo Observatory, La Serena.  Observers T. Linder, R. Holmes, L.
        Horn.  1.00-m f/10.0 astrograph + CCD.
    F51 Pan-STARRS 1, Haleakala.  Observers J. Bulger, T. Lowe, A. Schultz, I.
        Smith, K. Chambers.  Measurers K. Chambers, S. Chastel, T. de Boer, J.
        Fairlamb, H. Gao, M. Huber, C.-C. Lin, E. Magnier, Y. Ramanjooloo, R.
        Wainscoat, R. Weryk.  1.8-m Ritchey-Chretien + CCD.
    V06 Catalina Sky Survey-Kuiper.  Observer D. C. Fuls.  Measurers E. J.
        Christensen, D. Fay, J. B. Fazekas, D. C. Fuls, A. R. Gibbs, A. D. Grauer,
        H. Groeller, J. K. Hogan, R. A. Kowalski, S. M. Larson, G. J. Leonard, D.
        Rankin, R. L. Seaman, A. Serrano, F. C. Shelly, K. W. Wierzchos.  1.55-m
        reflector + 1K CCD.
    
    Orbital elements:
    2022 WG10                                                Earth MOID = 0.1815 AU
    Epoch 2023 Feb. 25.0 TT = JDT 2460000.5                 Veres                   
    M 356.21024              (2000.0)            P               Q                  
    n   0.30635899     Peri.  315.51071     -0.71932681     -0.69467129             
    a   2.1792930      Node   180.49069     +0.66195679     -0.68507657             
    e   0.4705124      Incl.    5.73483     +0.21067069     -0.21932144             
    P   3.22           H   21.35          G   0.15           U   8                  
    Residuals in seconds of arc
    221126 F51  0.0   0.0     221127 V06  0.5+  0.2-    221128 V06  0.0   0.0
    221126 F51  0.0   0.0     221127 V06  0.1-  0.2+    221128 V06  0.1+  0.0
    221126 F51  0.0   0.1+    221127 V06  0.5-  0.1+    221128 V06  0.7+  0.2+
    221126 F51  0.1+  0.0     221128 807  0.1-  0.1-    221201 291  0.2-  0.2+
    221127 807  0.2-  0.1-    221128 807  0.1+  0.2-    221201 291  0.1-  0.2+
    221127 807  0.2+  0.0     221128 807  0.1+  0.1-
    221127 807  0.2-  0.2-    221128 V06  0.1+  0.4-
    
    Ephemeris:
    2022 WG10                a,e,i = 2.18, 0.47, 6                   q = 1.1539
    Date    TT    R. A. (2000) Decl.     Delta      r    Elong.  Phase     V
    2022 11 01    03 28 30.1 +09 25 28   0.7460  1.7208   163.4     9.5    22.5
    ...
    2022 11 16    03 12 52.2 +06 18 07   0.6480  1.6277   167.4     7.6    22.0
    ...
    2022 11 24    03 02 51.4 +04 40 09   0.6152  1.5784   159.5    12.7    22.0
    ...
    2022 11 30    02 55 31.8 +03 35 20   0.5988  1.5418   152.3    17.3    22.1
    2022 12 01    02 54 22.3 +03 25 35   0.5967  1.5357   151.1    18.1    22.1
    2022 12 02    02 53 14.2 +03 16 10   0.5947  1.5297   149.8    18.9    22.1
    ...
    2022 12 08    02 47 04.3 +02 27 35   0.5863  1.4937   142.5    23.6    22.2
    ...
    2022 12 16    02 41 05.0 +01 46 22   0.5821  1.4467   133.3    29.7    22.3
    ...
    2022 12 31    02 38 54.9 +01 47 31   0.5882  1.3633   118.1    39.5    22.4
    
    M. P. C. Staff               (C) Copyright 2022 MPC           M.P.E.C. 2022-X03
    


    Read MPEC 2022-X02 Read MPEC 2022-X04


    MPEC number:

    Enter an MPEC number in one of the following forms:

    • 1997-B01 (the full form)
    • J97B01 (the packed version of the full form)
    • B01 (the abbreviated form)